Ashland, WI

6:06 AM CST on November 24, 2017 (GMT -0600)
Kennedy Memorial

Weather History for KASX - June, 2013

Change the Weather History Date:

Thursday, June 20, 2013

  Actual Average Record
Temperature  
Mean Temperature 64 °F -  
Max Temperature 70 °F 73 °F 89 °F (1988)
Min Temperature 57 °F 50 °F 31 °F (1992)
Degree Days  
Heating Degree Days 2    
Growing Degree Days 14 (Base 50)    
Moisture  
Dew Point 58 °F    
Average Humidity 93    
Maximum Humidity 100    
Minimum Humidity 75    
Precipitation  
Precipitation 1.22 in - - ()
Sea Level Pressure  
Sea Level Pressure 30.05 in    
Wind  
Wind Speed 5 mph (NE)    
Max Wind Speed 13 mph    
Max Gust Speed -    
Visibility 4 miles    
Events Fog , Rain , Thunderstorm    
Averages and records for this station are not official NWS values.
T = Trace of Precipitation, MM = Missing Value Source: NWS Daily Summary

Daily Weather History Graph

Daily Weather History Graph

Search for Another Location

Airport or City:

Trip Planner

Search our weather history database for the weather conditions in past years. The results will help you decide how hot, cold, wet, or windy it might be!

Date:

Astronomy

Jun. 20, 2013 Rise Set
Actual Time 5:10 AM CDT 9:00 PM CDT
Civil Twilight 4:31 AM CDT 9:39 PM CDT
Nautical Twilight 3:37 AM CDT 10:33 PM CDT
Astronomical Twilight 2:20 AM CDT 11:50 PM CDT
Moon 5:56 PM CDT (6/20) 2:45 AM CDT (6/20)
Length of Visible Light 17h 08m
Length of Day
15h 49m
Waxing Gibbous, 89% of the Moon is Illuminated
Jun 20
Waxing Gibbous
Jun 23
Full
Jun 29
Last Quarter
Jul 8
New
Jul 15
First Quarter

Hourly Weather History & Observations

Time (CDT) Temp. Dew Point Humidity Pressure Visibility Wind Dir Wind Speed Gust Speed Precip Events Conditions
12:53 AM 64.9 °F 57.0 °F 75% 30.01 in 10.0 mi SW 3.5 mph - N/A   Clear
1:53 AM 60.1 °F 55.9 °F 86% 30.00 in 10.0 mi SSW 4.6 mph - N/A   Clear
2:53 AM 61.0 °F 55.9 °F 83% 30.00 in 10.0 mi SSW 5.8 mph - N/A   Clear
3:53 AM 60.1 °F 55.9 °F 86% 30.02 in 10.0 mi SW 3.5 mph - N/A   Clear
4:53 AM 57.9 °F 55.9 °F 93% 30.00 in 10.0 mi Calm Calm - N/A   Partly Cloudy
5:53 AM 60.1 °F 57.0 °F 90% 30.02 in 10.0 mi NE 3.5 mph - N/A   Clear
6:53 AM 64.0 °F 60.1 °F 87% 30.03 in 10.0 mi Calm Calm - N/A   Clear
7:34 AM 62.6 °F 57.2 °F 82% 30.04 in 10.0 mi North 8.1 mph - N/A Thunderstorm Partly Cloudy
7:53 AM 62.1 °F 57.0 °F 84% 30.05 in 9.0 mi NNW 4.6 mph - N/A Thunderstorm Thunderstorm
8:53 AM 61.0 °F 59.0 °F 93% 30.06 in 8.0 mi Calm Calm - 0.02 in Rain , Thunderstorm Light Thunderstorms and Rain
9:13 AM 60.8 °F 59.0 °F 94% 30.06 in 2.5 mi East 4.6 mph - 0.06 in Rain Light Rain
9:21 AM 60.8 °F 59.0 °F 94% 30.06 in 7.0 mi ENE 3.5 mph - 0.06 in Rain Light Rain
9:53 AM 64.0 °F 61.0 °F 90% 30.07 in 10.0 mi ENE 3.5 mph - 0.06 in   Scattered Clouds
10:13 AM 62.6 °F 60.8 °F 94% 30.08 in 10.0 mi NNE 11.5 mph - N/A   Scattered Clouds
10:53 AM 66.0 °F 61.0 °F 84% 30.06 in 10.0 mi NE 10.4 mph - N/A   Scattered Clouds
11:53 AM 70.0 °F 62.1 °F 76% 30.07 in 10.0 mi ENE 11.5 mph - N/A   Clear
12:53 PM 69.1 °F 63.0 °F 81% 30.06 in 10.0 mi North 6.9 mph - N/A   Scattered Clouds
1:33 PM 62.6 °F 60.8 °F 94% 30.06 in 2.0 mi NNE 9.2 mph - 0.10 in Rain , Thunderstorm Heavy Rain
1:40 PM 62.6 °F 60.8 °F 94% 30.06 in 1.0 mi North 10.4 mph - 0.14 in Rain , Thunderstorm Rain
1:45 PM 62.6 °F 60.8 °F 94% 30.06 in 2.5 mi North 11.5 mph - 0.15 in Rain Light Rain
1:53 PM 62.1 °F 60.1 °F 93% 30.06 in 4.0 mi NNE 8.1 mph - 0.17 in Rain Rain
2:07 PM 62.6 °F 60.8 °F 94% 30.07 in 2.0 mi North 10.4 mph - 0.06 in Rain Rain
2:29 PM 60.8 °F 60.8 °F 100% 30.05 in 3.0 mi NE 10.4 mph - 0.12 in Rain Light Rain
2:39 PM 60.8 °F 60.8 °F 100% 30.05 in 4.0 mi NE 9.2 mph - 0.13 in Rain Light Rain
2:53 PM 61.0 °F 60.1 °F 97% 30.07 in 2.5 mi NE 5.8 mph - 0.17 in Rain Rain
3:04 PM 62.6 °F 60.8 °F 94% 30.07 in 2.5 mi NNE 5.8 mph - 0.03 in Rain , Thunderstorm Light Rain
3:39 PM 62.6 °F 60.8 °F 94% 30.08 in 1.8 mi NE 6.9 mph - 0.20 in Rain , Thunderstorm Heavy Rain
3:46 PM 62.6 °F 60.8 °F 94% 30.07 in 2.0 mi ENE 5.8 mph - 0.24 in Rain Rain
3:53 PM 62.1 °F 61.0 °F 96% 30.07 in 2.0 mi ENE 4.6 mph - 0.28 in Rain Rain
4:13 PM 62.6 °F 60.8 °F 94% 30.06 in 4.0 mi ENE 9.2 mph - 0.03 in Rain Light Rain
4:53 PM 61.0 °F 60.1 °F 97% 30.08 in 8.0 mi NNE 6.9 mph - 0.04 in   Overcast
5:22 PM 59.0 °F 57.2 °F 94% 30.09 in 1.8 mi Variable 4.6 mph - 0.02 in Rain Rain
5:44 PM 59.0 °F 57.2 °F 94% 30.07 in 2.5 mi NE 8.1 mph - 0.08 in Rain Light Rain
5:53 PM 60.1 °F 57.9 °F 93% 30.07 in 3.0 mi NE 5.8 mph - 0.10 in Rain Light Rain
6:51 PM 60.8 °F 59.0 °F 94% 30.06 in 1.8 mi North 5.8 mph - 0.06 in   Overcast
6:53 PM 60.1 °F 57.9 °F 93% 30.07 in 1.2 mi North 4.6 mph - 0.06 in   Overcast
7:35 PM 57.2 °F 55.4 °F 94% 30.08 in 0.5 mi NNW 5.8 mph - 0.03 in Fog , Rain Rain
7:53 PM 57.0 °F 55.9 °F 96% 30.05 in 1.2 mi East 8.1 mph - 0.09 in Rain Rain
8:00 PM 57.2 °F 55.4 °F 94% 30.05 in 1.2 mi ESE 4.6 mph - 0.01 in Rain Light Rain
8:07 PM 57.2 °F 57.2 °F 100% 30.06 in 3.0 mi Calm Calm - 0.01 in Rain Light Rain
8:15 PM 57.2 °F 57.2 °F 100% 30.06 in 4.0 mi North 3.5 mph - 0.01 in   Overcast
8:46 PM 57.2 °F 55.4 °F 94% 30.04 in 1.8 mi Calm Calm - 0.01 in   Overcast
8:53 PM 57.0 °F 55.9 °F 96% 30.05 in 1.2 mi North 4.6 mph - 0.01 in   Overcast
9:13 PM 57.2 °F 55.4 °F 94% 30.07 in 0.8 mi North 12.7 mph - N/A   Mist
9:27 PM 57.2 °F 55.4 °F 94% 30.05 in 2.0 mi ESE 3.5 mph - N/A   Overcast
9:35 PM 57.2 °F 55.4 °F 94% 30.06 in 5.0 mi Calm Calm - 0.00 in Rain Light Rain
9:49 PM 57.2 °F 57.2 °F 100% 30.07 in 1.5 mi SSE 3.5 mph - 0.16 in Rain Heavy Rain
9:53 PM 57.9 °F 57.0 °F 97% 30.06 in 1.0 mi SSE 4.6 mph - 0.22 in Rain Heavy Rain
10:01 PM 57.2 °F 57.2 °F 100% 30.06 in 3.0 mi Calm Calm - 0.00 in Rain Light Rain
10:17 PM 57.2 °F 57.2 °F 100% 30.05 in 4.0 mi Calm Calm - 0.00 in   Overcast
10:53 PM 57.9 °F 57.0 °F 97% 30.05 in 4.0 mi NNE 3.5 mph - 0.00 in   Overcast
11:23 PM 59.0 °F 57.2 °F 94% 30.05 in 1.5 mi NNE 9.2 mph - N/A   Overcast
11:28 PM 59.0 °F 57.2 °F 94% 30.04 in 0.5 mi East 5.8 mph - N/A Fog Fog
11:53 PM 59.0 °F 57.9 °F 96% 30.04 in 1.0 mi ENE 4.6 mph - N/A   Overcast